Wind_Speed
23 23 23 23 23 23 23 23 24 24 24 24 24 24 24 24 25 25 25 25 25 25 25 25 25 26 27 27 28 29 29 30 31 31 32 32 32 32 31 30 30 30 29 30 30 28 28 29 29 28 27 27 27 26 26 27 27 26 24 21 18 17 16 15 16 20 26 28 30 31 34 39 36 36 36 34 32 32 34 33 31 31 31 32 33 33 34 34
24 23 23 23 23 23 23 23 23 24 23 24 24 24 24 24 24 24 24 24 25 25 25 25 25 26 26 27 28 28 29 29 30 31 31 31 31 31 31 30 30 30 30 30 29 28 28 29 29 27 26 26 26 26 26 27 27 25 23 20 16 15 17 17 18 22 28 31 32 33 36 38 35 35 38 35 33 35 35 35 34 33 33 32 32 33 33 33
25 24 24 24 24 24 24 23 23 23 23 23 23 23 23 23 23 23 24 24 24 24 24 25 25 26 26 27 27 28 28 29 29 30 30 30 30 30 30 29 29 30 29 29 28 28 28 28 27 26 25 24 25 25 24 25 25 25 23 19 15 16 20 20 20 24 30 33 34 36 38 39 38 36 38 37 37 39 38 38 38 36 35 34 34 34 33 33
26 26 25 24 24 24 24 24 24 24 24 24 24 24 24 23 23 23 23 23 24 24 24 24 25 26 26 26 27 27 28 29 29 29 29 29 29 29 28 28 28 28 28 28 27 28 28 27 26 25 24 24 24 24 23 23 24 24 22 18 17 19 21 21 22 25 30 34 36 38 39 39 38 37 37 36 38 40 40 39 38 36 35 34 35 35 34 33
27 27 26 26 25 25 25 25 25 25 25 25 25 25 25 24 23 23 23 23 24 24 24 24 25 25 26 26 26 27 28 28 28 28 28 28 28 28 27 27 27 27 27 27 27 27 27 26 25 24 23 24 25 24 22 23 24 24 20 18 19 19 19 21 22 24 28 32 36 38 38 38 37 36 34 30 30 33 33 33 32 32 31 31 32 32 32 32
28 28 27 27 27 26 26 26 26 26 27 27 27 27 26 26 25 24 23 23 23 23 24 24 24 25 25 25 25 26 27 28 27 27 27 27 27 26 26 26 26 26 26 26 26 26 26 25 24 24 23 24 24 23 24 25 25 24 20 18 19 19 19 22 23 24 27 30 34 35 33 33 32 32 30 25 23 23 24 26 27 28 27 27 28 28 27 27
28 28 28 28 28 27 27 27 27 27 28 28 28 27 27 27 26 26 24 24 23 23 23 24 24 25 25 25 25 25 26 27 26 26 25 25 25 25 25 25 25 25 26 26 26 26 26 25 24 24 24 25 25 25 27 27 27 24 20 19 20 20 20 22 24 25 26 27 30 30 28 28 27 26 26 24 22 22 22 24 25 24 23 23 24 23 22 22
28 28 28 28 28 28 27 27 28 28 28 28 28 27 27 27 27 26 25 24 23 23 23 24 24 24 24 24 24 25 26 26 25 24 24 24 24 24 24 24 24 25 25 26 26 25 25 25 25 25 26 27 27 28 30 29 28 25 22 22 23 23 22 24 25 26 26 26 26 26 25 24 22 21 23 23 23 22 22 23 21 20 19 19 19 18 18 19
28 28 28 28 28 27 27 28 28 28 28 28 27 27 26 26 26 25 25 24 24 24 23 24 24 24 23 23 23 24 24 24 24 23 23 24 24 24 24 24 23 24 24 25 24 24 25 26 27 27 28 29 29 30 30 29 28 25 25 25 24 24 23 24 25 25 24 25 25 23 21 21 19 19 22 22 23 22 22 20 18 17 16 17 16 16 17 17
27 27 27 27 27 27 27 27 27 27 27 27 27 26 26 25 25 24 24 24 24 24 24 24 24 23 22 22 22 22 22 22 22 22 22 22 22 22 22 22 23 23 23 23 24 25 26 28 28 28 28 28 28 29 29 28 27 26 26 25 23 23 23 24 24 24 24 24 23 21 20 19 17 18 20 22 23 22 20 19 17 16 16 16 16 16 16 16
26 26 26 26 26 26 25 25 26 26 25 25 25 25 25 24 24 24 23 23 23 23 24 24 23 22 21 21 20 20 20 20 19 19 20 20 20 20 21 21 22 22 22 23 24 25 26 27 26 27 27 27 27 28 27 27 26 26 25 24 23 23 23 23 23 25 25 24 23 22 20 17 15 17 20 24 24 20 19 19 17 16 16 17 17 17 15 15
24 25 25 25 25 25 24 24 24 24 23 24 24 24 24 23 23 23 23 23 23 24 24 23 21 21 21 20 19 18 19 18 16 17 17 17 18 18 19 19 20 21 22 23 23 24 24 24 24 25 26 25 26 27 26 26 27 27 25 24 24 22 21 22 23 26 26 27 26 25 22 16 17 21 24 28 24 18 19 20 18 16 17 18 17 16 15 15
23 24 24 24 24 24 23 23 22 22 22 22 22 22 23 23 23 23 23 23 23 24 23 22 21 21 21 20 18 18 19 16 14 15 15 16 16 16 17 18 19 20 21 22 22 22 23 23 23 24 24 25 26 26 26 26 27 28 27 26 25 23 23 24 26 27 28 29 28 28 24 18 21 25 27 30 23 17 21 21 18 18 19 19 17 15 15 15
21 22 22 23 23 23 22 22 22 21 21 21 21 22 22 22 22 22 22 23 23 23 22 21 21 21 21 20 18 18 19 16 14 14 14 15 15 15 15 17 18 19 20 22 22 23 23 23 23 23 23 24 26 26 27 27 27 28 27 27 26 25 25 27 28 28 28 29 28 29 26 19 23 28 29 29 22 19 23 21 19 19 20 20 16 14 12 12
19 20 21 21 22 22 22 22 21 21 21 21 21 21 21 21 22 22 22 23 23 22 22 21 21 21 21 20 18 18 19 17 14 14 14 14 14 14 15 16 18 19 20 21 23 24 24 23 23 23 23 24 25 26 27 27 27 27 26 27 27 27 27 28 28 27 27 28 28 29 26 23 27 30 30 28 22 22 24 22 20 20 20 19 15 12 10 9
17 18 19 20 21 21 21 21 21 22 21 21 21 21 21 21 22 22 23 23 22 21 21 21 21 21 21 20 18 18 18 17 16 15 15 14 14 15 15 16 17 18 19 20 21 22 22 22 23 23 25 25 26 26 26 27 27 26 27 28 28 27 26 26 25 25 27 28 27 26 25 25 28 30 30 28 24 24 24 22 20 20 20 17 13 12 11 11
16 17 18 19 20 20 21 21 22 22 22 21 21 21 22 22 22 23 23 23 22 20 21 21 20 20 20 19 18 18 18 18 17 16 15 15 15 15 15 16 17 17 18 18 19 20 20 21 22 23 24 25 26 26 25 26 26 26 28 28 27 26 25 24 25 26 27 26 25 25 26 26 28 30 30 27 24 23 22 20 18 19 19 16 14 14 15 15
16 16 17 18 19 20 20 21 22 22 22 22 22 22 22 23 22 23 23 23 22 21 21 20 20 20 19 18 17 17 17 17 18 17 16 16 16 15 15 16 16 17 17 17 18 19 19 20 20 21 22 22 24 24 23 24 25 27 27 26 25 25 24 24 24 24 23 21 22 25 25 26 27 28 28 25 23 22 20 17 16 16 14 13 14 16 17 18
15 15 16 17 18 19 20 20 21 21 22 22 22 22 23 23 23 23 23 23 23 23 22 20 19 19 18 16 16 16 16 17 17 17 17 16 16 16 16 16 16 17 17 17 18 18 18 19 19 20 19 19 20 21 22 25 26 26 25 23 24 24 24 23 21 21 21 17 18 21 21 23 25 24 24 23 20 20 19 17 16 11 10 12 15 17 18 17
15 15 15 16 17 17 18 19 20 21 21 21 22 22 23 23 23 23 23 23 24 24 23 21 20 20 18 16 16 16 17 17 17 17 17 17 17 17 17 16 16 16 17 17 17 17 18 17 18 19 19 19 20 21 24 26 25 24 23 23 24 25 25 23 21 21 20 16 16 18 19 20 20 17 16 16 16 18 18 17 13 8 9 13 16 18 17 14
16 16 16 16 16 17 17 18 18 19 20 21 21 22 22 22 22 22 22 23 24 24 24 23 22 21 19 17 16 17 17 17 17 17 17 17 18 17 17 16 16 17 17 17 16 16 17 16 17 19 20 21 22 24 25 25 23 24 24 24 26 27 25 24 24 20 17 16 15 15 16 18 19 15 10 9 11 14 15 14 10 8 10 14 16 17 16 12
17 17 17 17 17 17 18 18 18 18 18 19 20 20 20 21 21 21 22 23 24 25 24 24 23 22 20 19 17 17 17 17 18 17 17 18 18 18 17 17 17 17 16 16 16 16 17 17 18 18 19 20 21 23 23 22 23 23 24 25 28 28 25 24 23 18 16 17 15 13 13 16 18 16 10 9 10 11 12 12 11 11 12 14 17 18 17 12
17 17 17 17 18 18 18 18 18 18 18 19 19 19 19 20 21 22 22 23 23 24 24 24 25 25 23 21 19 18 19 19 18 18 18 19 19 18 17 18 18 17 15 16 17 18 19 19 19 18 18 19 21 21 20 19 20 21 24 27 28 28 25 23 20 17 17 19 18 16 14 13 15 14 12 13 13 11 12 12 14 14 14 17 19 19 18 15
19 18 18 17 18 19 19 19 19 19 19 19 19 19 20 21 22 23 23 23 24 24 23 24 26 25 24 23 20 19 20 20 19 19 19 19 18 18 19 20 18 16 16 17 19 20 20 20 20 20 21 22 23 22 20 19 19 21 25 29 29 28 26 23 20 19 20 20 20 20 16 14 14 14 14 15 15 13 14 15 16 17 18 20 20 20 20 17
22 21 20 19 19 19 19 20 19 19 19 19 19 20 21 22 22 23 23 22 23 24 22 23 25 25 26 25 21 20 20 20 20 20 20 19 19 19 21 21 18 18 18 19 19 20 20 20 21 22 22 23 24 24 23 22 19 21 26 30 30 28 26 25 23 23 23 22 23 22 18 15 15 15 16 17 17 17 17 17 18 19 21 22 22 23 22 19
24 23 23 22 21 20 19 20 19 19 19 18 18 21 22 22 22 22 22 22 22 23 22 22 24 26 27 25 21 21 21 20 21 22 21 21 21 22 23 21 20 20 21 21 21 20 21 21 21 22 22 23 24 24 24 23 21 22 27 31 32 30 27 25 25 26 25 25 26 25 21 19 18 18 19 20 21 22 22 21 21 22 23 24 25 26 24 22
25 25 25 24 23 22 21 20 19 19 19 18 19 21 23 22 22 22 23 22 21 22 21 21 23 24 26 25 24 23 23 23 24 23 23 22 22 22 23 21 21 22 24 23 22 22 22 22 22 21 22 22 23 23 23 23 23 22 27 33 34 32 30 27 27 29 28 27 28 28 26 24 23 22 24 24 25 26 26 25 24 24 26 26 26 26 26 25
24 25 25 25 25 24 23 22 20 19 19 19 20 22 22 22 22 22 22 22 21 21 21 22 22 22 25 26 24 23 23 24 24 24 25 25 24 24 23 22 21 24 26 25 22 22 23 23 22 22 23 23 24 24 24 24 22 21 27 34 36 34 32 30 29 31 32 30 30 31 30 28 27 27 28 28 28 29 30 29 28 27 27 27 27 28 28 28
25 24 24 25 25 25 25 24 23 21 20 20 21 22 22 22 22 21 21 20 18 19 20 22 23 24 27 25 22 22 23 23 23 22 24 26 26 25 24 23 24 27 28 26 24 24 24 24 24 24 24 25 25 25 26 23 19 21 27 34 37 36 33 32 31 32 34 34 33 33 33 31 29 29 29 30 30 31 32 32 32 30 28 29 30 31 31 31
25 24 23 24 24 25 25 25 25 23 22 22 22 22 22 22 22 23 21 18 17 18 19 21 22 24 26 24 22 23 23 23 22 21 21 23 24 25 25 26 28 29 29 28 26 25 25 26 26 25 25 26 26 25 24 20 18 20 24 30 35 37 36 34 33 33 34 34 34 35 34 33 31 29 29 29 30 30 31 32 32 31 29 30 32 33 34 33
27 25 24 24 24 23 24 26 26 25 24 24 23 23 23 24 24 24 21 17 18 19 20 22 22 21 23 22 22 23 24 24 22 21 21 22 23 23 25 27 28 29 29 28 25 25 25 26 26 25 24 25 24 21 20 19 18 19 21 25 30 34 38 38 36 35 35 35 35 35 34 34 34 33 31 30 28 28 28 30 31 30 29 30 31 33 34 33
29 27 25 25 25 23 25 27 25 25 26 26 25 25 25 26 26 23 19 18 20 20 20 24 25 23 23 23 23 24 25 25 23 21 20 21 22 20 21 24 26 27 28 26 24 25 25 25 25 24 23 23 22 19 18 18 18 18 20 23 25 30 35 38 39 39 38 37 36 35 35 35 36 36 33 31 30 28 28 29 29 30 30 30 31 32 33 33
29 28 26 26 26 25 28 28 25 25 27 27 27 26 27 27 25 21 19 20 22 22 23 25 26 27 27 27 26 26 27 27 26 22 21 22 22 20 20 23 25 26 27 26 25 25 24 24 24 24 23 22 21 19 17 18 19 19 19 21 23 28 32 35 39 41 40 38 37 37 37 36 38 38 35 32 31 29 29 30 30 31 32 32 33 33 33 31
29 28 27 28 28 29 31 30 26 25 27 28 28 28 28 27 23 19 19 21 22 24 26 26 26 27 27 28 28 29 30 30 29 26 24 24 24 23 23 24 25 26 27 27 26 25 25 24 24 23 22 22 20 17 16 18 19 19 20 21 23 26 29 32 36 39 40 39 37 36 37 38 40 40 36 34 32 30 30 29 29 30 32 33 33 33 33 31
28 27 26 28 29 31 34 33 29 27 28 29 29 30 28 25 21 19 19 22 24 27 27 26 26 26 26 27 27 29 31 31 31 29 27 26 25 24 22 22 25 27 28 28 27 26 25 24 24 23 22 22 20 18 19 20 20 20 22 23 23 25 27 30 33 37 40 41 39 38 37 38 39 37 35 33 30 30 29 28 28 29 30 31 31 31 33 33
28 26 25 27 30 34 36 34 31 29 29 31 31 30 26 23 21 20 21 24 26 27 26 26 27 27 26 27 28 29 29 30 31 31 28 27 25 23 21 20 23 25 26 27 27 27 25 24 25 24 22 22 21 21 23 22 21 21 22 23 24 26 27 28 30 32 36 37 37 36 35 35 35 33 31 29 28 28 27 27 28 28 28 28 28 28 30 29
29 27 26 27 31 35 36 34 33 32 31 33 34 30 25 24 23 22 23 25 26 27 26 26 27 28 27 27 28 30 29 29 32 32 30 29 27 26 24 23 24 23 23 24 25 27 25 23 25 25 23 22 22 23 24 23 22 21 21 22 25 27 28 28 28 29 30 30 30 31 30 30 31 31 28 26 25 26 26 26 27 28 28 27 26 27 28 28
29 29 29 28 30 34 34 32 33 32 32 35 35 30 27 25 24 24 26 27 27 28 28 27 27 28 29 28 28 30 30 30 31 32 32 32 30 29 27 26 27 25 23 23 24 26 25 23 24 26 25 25 24 24 25 25 23 20 20 22 24 26 26 27 27 27 27 26 25 26 26 27 29 28 27 25 23 23 24 23 23 24 26 27 27 26 26 27
28 30 30 29 30 32 32 31 32 33 34 36 34 31 28 26 26 27 28 29 29 30 29 27 28 29 30 29 29 29 30 30 30 31 32 33 31 29 27 26 27 25 24 25 25 27 27 24 23 24 24 24 25 25 26 26 23 21 22 23 24 25 25 25 25 26 25 22 21 22 22 24 25 24 24 22 22 21 20 20 19 20 21 23 23 23 23 24
27 30 30 29 30 31 30 31 32 33 33 34 33 31 30 28 28 29 30 31 31 31 30 30 30 31 30 31 31 30 29 31 32 32 32 33 32 28 26 25 26 26 26 28 29 30 30 27 25 23 23 25 26 26 27 27 24 22 23 25 25 25 25 25 24 24 23 21 20 19 19 20 21 21 21 21 21 20 19 20 21 20 20 20 20 22 23 23
28 29 29 29 31 31 31 31 31 30 29 29 29 30 31 31 31 30 32 33 32 31 32 32 33 33 33 33 33 33 31 32 34 35 34 34 33 31 30 29 29 28 29 31 31 31 30 29 28 24 22 25 27 27 28 27 25 23 24 26 27 27 26 25 25 25 25 24 23 21 19 18 18 19 20 20 20 20 19 20 21 20 20 20 21 22 22 21
30 29 28 29 31 32 32 32 31 29 28 27 26 28 31 33 33 32 33 34 33 31 32 34 34 34 34 34 33 34 34 33 34 36 37 37 35 34 34 33 33 32 32 33 34 33 31 29 29 27 24 25 29 30 28 28 27 26 26 28 30 30 29 27 27 27 27 27 27 26 23 21 20 19 19 19 20 19 19 19 18 18 20 20 21 21 19 18
30 30 27 28 30 32 33 33 32 31 29 28 27 28 29 31 32 33 34 36 34 32 34 36 36 35 35 35 34 34 35 35 34 33 33 33 36 36 35 34 34 35 35 36 36 35 33 31 30 29 27 27 30 31 30 30 31 30 29 30 31 31 30 28 28 29 29 29 29 28 27 24 21 20 20 20 20 19 19 18 18 18 19 19 19 19 19 19
27 29 26 26 29 31 34 35 34 32 31 30 30 29 28 29 31 33 36 37 36 34 36 38 38 38 37 37 36 34 35 35 35 33 28 27 31 35 36 35 34 34 36 38 38 37 35 34 32 32 30 30 33 34 32 32 33 33 32 31 30 30 29 28 28 29 30 30 30 29 28 25 22 21 19 18 18 18 18 19 19 18 19 19 20 21 20 20
22 26 24 23 27 30 32 34 34 32 32 32 32 31 30 29 31 34 37 39 38 37 39 40 40 41 41 40 38 36 35 35 36 35 30 26 27 31 36 38 37 35 35 37 38 38 37 37 36 34 33 33 35 36 36 34 33 34 33 31 30 30 29 28 28 28 29 29 30 30 28 26 25 23 21 20 20 21 21 21 21 22 23 24 25 24 23 22
19 23 25 23 24 27 29 31 32 33 33 34 33 32 31 30 31 35 37 40 40 40 41 41 41 42 42 42 41 39 38 37 36 36 33 30 29 30 33 35 36 37 37 38 38 39 38 39 39 37 35 35 35 36 37 36 34 33 33 32 30 30 30 30 30 29 29 29 30 31 30 29 29 27 26 26 26 26 25 25 26 26 27 27 27 26 26 26
17 21 26 28 26 26 26 26 28 30 33 35 34 31 29 28 30 32 35 39 41 42 42 43 43 43 43 43 42 41 40 39 38 36 35 34 33 33 33 32 32 32 33 34 36 37 38 39 40 39 38 37 37 37 37 37 36 34 32 30 30 31 32 33 32 32 32 32 32 33 32 31 31 30 30 30 30 29 28 27 27 27 27 27 27 27 27 27
14 19 26 30 31 30 27 25 25 27 29 31 32 31 29 28 28 29 33 37 40 42 43 43 44 43 43 43 41 39 38 37 37 37 36 36 36 37 37 35 33 31 28 29 31 32 34 36 38 40 39 38 38 37 36 35 36 37 35 32 31 33 34 34 34 34 35 35 35 35 34 33 33 33 33 33 33 32 31 31 31 31 31 31 31 31 31 31
11 17 25 30 33 32 30 28 27 28 29 30 30 30 30 29 28 29 31 35 38 41 43 43 44 43 43 43 42 40 37 35 35 36 36 35 36 38 38 38 37 35 32 31 31 30 29 31 33 35 36 37 38 38 38 37 36 38 38 36 35 36 36 35 35 35 35 36 37 37 37 37 36 35 36 36 36 35 35 36 36 36 35 35 35 35 35 35
9 13 21 28 31 32 31 29 25 22 25 29 30 30 30 29 28 29 31 34 37 39 41 42 43 43 43 43 42 42 39 36 34 35 36 35 36 36 36 36 36 35 34 34 34 33 31 29 30 30 31 32 34 36 38 38 35 33 34 35 36 37 37 37 35 35 35 36 38 39 40 40 39 38 38 38 38 38 38 39 39 39 38 38 37 37 38 38
11 8 16 23 28 29 29 30 28 22 19 23 27 28 29 29 29 29 30 32 34 37 39 40 42 42 43 43 43 42 41 39 36 36 36 36 36 36 35 35 34 34 33 33 33 33 32 31 30 30 29 29 29 30 32 34 33 32 32 33 34 35 37 37 36 35 35 37 38 39 39 40 40 40 40 40 40 41 42 42 42 42 42 42 42 42 42 42
13 7 10 19 24 26 26 27 28 26 23 22 24 26 26 27 28 28 29 31 32 34 35 37 39 40 41 42 42 41 40 39 39 39 39 38 37 36 36 35 35 35 34 34 33 32 32 32 32 32 32 31 32 32 32 33 33 34 34 34 34 35 36 38 39 38 38 39 40 40 40 41 41 41 42 43 44 45 45 45 45 45 45 46 46 47 47 47
Wind_Direction
255 255 254 254 254 253 253 253 252 251 251 250 250 249 247 247 246 247 247 248 249 249 250 251 252 253 253 253 254 255 255 255 255 255 255 255 255 256 256 256 256 256 256 256 257 256 255 255 255 255 254 254 254 254 254 256 258 259 258 258 256 252 246 237 224 219 226 223 218 219 216 215 216 217 220 223 227 231 236 243 250 256 260 264 268 271 275 278
256 255 255 255 255 255 255 254 254 253 252 251 251 250 249 248 248 248 248 248 248 248 250 251 252 253 254 254 255 256 256 256 256 256 257 256 256 257 257 256 256 255 255 254 255 255 254 255 256 256 255 256 256 256 256 258 258 259 258 256 253 246 241 233 220 219 223 222 218 218 217 215 215 218 222 225 229 233 235 240 246 252 258 263 268 271 275 279
256 256 255 255 255 255 255 255 254 254 253 253 252 251 251 250 249 249 248 248 248 248 250 252 253 254 254 255 256 256 256 256 257 257 258 258 258 257 257 257 255 255 254 253 253 253 254 255 256 255 255 254 254 255 256 257 258 257 257 255 244 236 237 230 221 219 219 221 220 217 218 216 216 221 227 230 233 236 237 240 246 251 256 261 265 269 275 279
255 255 255 255 255 255 255 255 255 254 254 254 253 253 252 251 251 250 250 249 249 249 250 252 253 254 255 256 257 257 257 257 257 258 258 258 258 256 256 255 254 254 253 252 251 251 252 253 254 253 252 251 252 253 253 255 256 255 256 249 237 234 238 235 229 226 222 223 223 221 221 221 225 232 236 239 241 241 244 247 252 256 259 263 267 270 275 279
254 254 255 255 256 256 256 256 255 255 255 254 253 253 253 252 252 251 251 250 250 250 251 253 254 255 255 256 258 258 258 258 258 258 258 257 256 255 254 253 252 252 251 250 249 249 249 249 250 250 248 248 250 251 250 251 252 252 251 244 238 236 236 237 235 233 229 227 228 228 227 229 236 242 246 252 252 251 254 257 259 263 266 268 270 272 275 279
254 254 255 256 257 257 257 256 256 256 255 255 255 254 254 254 253 252 252 251 251 251 252 253 254 255 255 257 258 259 260 259 258 258 258 257 256 255 254 252 250 249 249 247 246 246 247 246 246 246 245 246 248 248 247 248 249 248 246 242 240 235 232 237 239 237 237 233 232 235 237 238 242 248 253 260 262 261 259 259 261 265 270 271 271 272 277 280
255 255 255 256 257 258 258 257 257 257 257 257 257 256 256 255 254 253 251 251 251 251 252 253 254 255 255 256 258 260 260 260 259 259 259 258 257 255 253 252 249 247 246 245 244 243 243 243 243 243 242 243 244 242 243 245 245 244 241 239 237 235 229 233 239 238 241 241 238 239 243 245 246 251 252 255 264 265 258 258 262 267 271 271 271 274 278 280
255 255 255 256 257 258 258 258 258 258 259 259 259 258 257 256 254 253 251 250 250 250 252 252 253 253 254 255 258 259 260 260 260 258 258 258 256 255 253 251 249 246 245 244 243 242 241 240 240 240 239 238 237 236 239 242 242 241 238 237 237 237 230 230 238 240 242 244 243 243 244 247 248 249 248 253 265 264 259 263 267 271 273 273 275 277 278 279
255 255 255 256 257 258 258 258 258 259 259 260 259 258 257 256 254 252 251 249 249 250 251 251 251 251 252 254 256 257 258 258 258 257 256 256 255 255 253 251 249 246 244 242 241 239 237 236 237 238 238 238 237 238 242 245 245 242 242 243 243 243 237 236 242 244 245 246 247 248 247 248 248 248 252 258 265 266 266 268 270 272 273 275 278 277 277 279
255 254 255 255 256 257 258 259 259 260 260 260 259 258 257 256 254 252 250 248 248 249 249 249 249 249 250 252 253 254 255 255 255 256 255 254 253 253 251 250 248 245 242 239 236 234 234 235 237 240 242 243 242 242 246 249 250 247 248 250 248 245 242 241 245 248 250 250 251 251 248 247 248 251 258 260 261 263 267 270 271 273 273 275 277 275 276 276
254 254 254 255 256 257 258 259 260 261 261 260 259 257 256 255 253 251 248 247 247 246 247 247 246 247 248 248 248 250 253 252 252 254 254 254 253 251 250 247 245 242 239 236 234 235 236 239 242 244 245 246 245 245 247 249 251 250 251 253 250 245 242 242 245 249 252 254 253 253 249 247 250 254 259 260 257 257 264 268 269 271 273 274 272 271 269 268
254 253 253 254 255 256 257 259 260 261 260 259 258 256 255 253 251 249 248 246 245 245 246 245 244 244 245 244 244 247 249 250 251 251 252 253 251 250 248 245 242 239 237 236 236 237 240 243 245 245 245 246 247 247 248 248 249 250 251 251 250 247 245 244 245 247 251 252 253 254 251 248 252 255 257 258 256 255 257 261 264 266 267 265 263 263 262 265
256 253 252 252 253 255 256 258 259 259 259 257 256 254 253 252 250 248 247 245 244 245 244 242 241 242 242 241 241 245 247 247 250 252 251 250 248 247 245 242 239 237 236 236 237 238 240 241 243 244 245 246 247 248 248 248 247 249 249 249 249 248 246 244 242 242 245 247 249 251 250 245 250 252 253 256 256 253 255 256 257 256 254 253 254 259 265 270
258 254 252 251 252 254 255 257 257 257 257 256 254 253 252 251 249 247 245 244 243 243 241 239 240 240 241 240 239 244 248 247 247 252 253 249 246 243 241 240 236 235 234 234 234 235 236 238 238 240 241 242 244 245 245 245 245 246 247 247 246 244 244 243 242 243 245 246 247 249 248 241 245 249 250 254 254 251 253 253 249 247 246 247 251 259 269 275
263 258 254 252 252 253 255 256 256 255 255 254 253 253 251 249 248 246 244 243 242 240 238 239 239 239 241 240 238 242 247 248 245 247 250 250 246 241 239 238 235 234 233 233 233 234 235 235 235 235 234 234 237 239 240 241 241 241 242 242 241 241 243 245 246 246 245 244 243 246 246 240 241 247 249 251 250 247 250 249 247 246 245 246 252 257 260 266
266 261 257 254 253 254 255 255 255 255 254 253 252 251 250 248 247 246 244 242 239 236 238 239 239 240 241 241 239 240 245 248 246 244 244 246 245 241 238 236 235 234 233 233 234 236 235 234 233 233 231 231 232 234 236 238 237 235 236 238 239 241 243 245 245 242 239 238 237 238 238 237 240 244 246 246 244 243 246 245 245 245 242 245 254 258 258 262
268 264 260 257 255 255 255 255 254 254 253 252 250 249 248 247 246 245 242 239 235 234 237 239 239 240 241 242 241 241 244 246 246 244 241 242 244 242 239 237 235 234 234 234 234 235 235 234 233 233 234 234 233 233 233 235 234 233 235 237 239 242 241 239 237 235 234 232 230 231 231 232 237 241 243 243 240 240 242 243 243 242 240 247 262 272 275 278
270 266 262 260 258 257 256 255 254 254 253 251 249 248 246 245 245 243 241 237 232 231 235 237 238 240 243 244 244 244 245 246 246 245 242 240 242 243 241 239 237 235 234 234 235 235 235 234 233 233 235 237 237 233 231 233 231 232 236 235 236 236 233 230 228 229 229 223 224 230 230 231 236 240 244 243 239 236 237 236 235 237 246 261 276 284 289 294
273 268 265 261 259 258 256 255 254 253 253 251 249 247 246 245 243 242 240 236 233 230 232 235 237 241 243 245 247 247 245 245 245 246 245 242 240 241 241 240 239 236 235 235 236 236 235 234 233 232 232 234 235 229 227 229 228 230 232 228 228 228 226 224 219 220 220 212 217 224 225 230 235 239 243 244 238 233 234 232 231 239 263 278 283 286 293 298
273 270 266 263 260 258 257 256 254 253 252 251 249 247 246 244 242 241 239 237 234 232 233 234 235 238 240 242 244 244 243 243 243 243 244 243 241 241 239 238 237 236 235 233 235 237 236 235 234 230 226 225 225 222 225 227 226 227 224 220 224 226 223 214 203 208 215 210 216 221 220 223 227 230 239 245 239 236 239 239 237 247 269 279 285 289 293 291
273 270 267 264 262 260 258 256 255 254 253 252 250 248 247 245 243 241 238 236 234 234 234 235 236 238 240 243 242 242 244 243 241 241 241 241 240 239 238 236 235 235 233 231 232 234 233 232 233 232 228 225 223 224 227 226 224 224 219 216 221 223 219 207 198 203 212 211 217 223 222 221 218 214 225 249 250 245 246 245 239 244 267 279 283 288 293 289
273 271 268 265 263 261 259 257 256 255 254 253 252 251 250 247 243 240 238 236 234 233 235 237 239 239 240 242 242 244 246 243 239 238 239 240 239 238 236 235 235 235 232 230 229 229 227 225 227 230 231 229 227 228 230 227 225 222 215 214 217 219 216 205 200 205 209 207 206 210 220 224 221 220 234 260 261 251 248 247 243 245 262 272 274 284 292 291
271 270 269 266 264 262 260 258 257 256 255 255 254 253 252 248 243 240 238 238 237 234 234 236 239 240 240 241 242 243 245 244 240 236 236 239 240 239 237 236 236 233 229 227 225 223 223 223 222 222 224 223 221 224 225 224 224 217 210 212 214 216 215 205 198 205 208 202 196 196 208 224 231 237 249 258 257 249 243 244 249 253 256 260 269 283 290 288
268 268 268 267 265 263 261 258 256 256 255 254 254 254 253 250 246 242 239 239 238 236 234 236 239 241 242 241 239 240 242 244 242 238 236 237 240 240 238 237 235 230 226 225 224 222 222 223 222 220 219 218 218 218 215 214 217 211 207 212 214 215 216 209 198 201 206 200 194 197 205 220 238 250 254 256 255 250 246 249 261 269 266 265 272 284 289 291
265 265 266 266 265 264 262 259 257 256 255 254 254 254 252 250 249 248 245 243 241 239 236 237 239 241 241 239 238 238 239 241 241 240 238 237 238 237 237 237 233 228 225 225 226 226 225 226 226 224 223 222 222 221 215 212 211 206 207 213 216 214 215 213 203 200 204 199 195 198 204 214 230 244 250 253 252 248 247 251 261 269 268 269 273 279 287 292
262 262 263 263 264 263 263 261 259 255 255 255 254 252 251 249 249 249 248 247 245 243 239 237 239 241 242 241 239 237 237 238 238 238 237 236 235 236 237 234 229 229 227 224 226 226 227 228 228 229 228 228 228 224 220 215 211 208 209 214 218 216 214 213 206 202 204 205 200 198 200 208 218 229 237 242 246 247 247 250 254 259 262 266 269 274 282 287
262 261 261 261 261 261 261 262 260 257 254 253 251 251 250 249 249 248 249 248 247 246 242 240 239 240 243 241 238 236 236 237 237 237 238 239 238 237 236 233 229 231 231 228 228 228 230 230 228 229 229 230 231 228 225 220 215 212 211 213 218 219 216 213 207 202 205 210 207 201 202 206 210 221 232 236 240 245 249 253 255 257 260 263 266 270 276 281
262 261 260 260 259 258 258 259 259 258 255 251 249 250 251 249 249 248 248 248 247 246 243 240 238 238 240 240 238 238 237 238 239 237 237 238 236 234 232 229 228 231 232 229 224 225 233 232 229 229 227 228 230 231 230 225 218 212 207 209 215 219 218 215 208 203 206 210 210 209 212 213 212 219 231 236 240 245 248 252 254 257 259 260 263 267 272 277
260 260 261 260 259 257 256 256 256 256 254 252 249 250 251 250 249 247 247 246 245 244 242 241 238 234 236 238 237 237 238 237 237 236 237 237 236 232 228 224 226 229 232 229 221 220 228 231 231 231 230 229 228 230 230 225 215 210 207 208 213 218 219 219 214 210 211 212 214 219 223 225 223 224 232 239 243 246 248 249 251 253 254 255 258 263 268 272
257 257 259 260 259 258 257 255 254 253 253 252 250 249 250 250 249 248 246 244 242 241 241 241 237 233 235 237 236 237 237 236 235 235 237 238 234 229 225 225 227 230 232 230 223 219 222 228 233 233 232 231 229 229 230 223 212 212 213 211 213 218 219 221 221 220 221 221 222 226 230 233 233 232 235 241 246 247 249 251 252 251 250 251 255 259 265 269
255 254 255 258 258 258 257 254 252 251 250 251 251 249 248 247 247 247 246 244 241 240 240 240 240 236 236 235 233 234 236 235 234 234 235 237 236 230 227 228 229 231 234 231 224 220 221 226 233 234 232 233 233 232 232 231 223 220 221 217 216 220 221 222 225 227 229 231 231 233 237 240 241 241 238 241 249 252 252 253 253 252 251 252 255 258 262 266
257 253 252 254 256 256 256 253 250 249 248 248 248 248 248 247 246 246 247 245 243 241 239 239 239 237 235 234 231 230 231 232 231 228 229 232 234 231 228 227 228 230 233 229 220 220 225 230 234 235 232 233 235 235 237 243 242 235 229 224 222 225 225 224 227 229 232 235 238 239 241 245 248 249 246 244 248 251 252 252 250 249 249 250 253 255 259 263
259 255 250 251 253 254 253 253 249 247 247 246 245 245 246 247 246 246 247 246 245 243 241 241 240 237 236 235 233 230 229 228 227 222 221 224 226 225 223 224 226 226 228 227 218 217 226 234 237 236 233 233 235 237 243 251 252 245 234 228 228 230 229 228 229 232 234 236 239 242 245 249 252 254 254 251 249 248 250 250 248 247 247 247 249 252 256 259
262 257 251 249 249 250 251 251 247 246 246 246 244 243 244 246 247 246 244 245 245 243 242 241 241 240 237 234 232 232 230 229 228 222 217 219 221 224 226 227 228 226 224 225 220 216 222 230 236 235 231 232 237 240 242 245 247 244 235 229 229 231 232 231 231 234 236 237 239 244 248 252 255 257 258 256 254 250 249 247 244 244 245 245 247 250 252 252
263 259 253 248 246 247 248 249 247 245 246 247 245 243 243 244 245 243 239 239 241 243 242 239 239 239 236 231 227 229 231 230 231 227 221 219 219 224 229 229 230 228 225 224 222 222 224 226 229 229 228 231 235 238 240 242 244 244 239 232 230 231 233 233 233 235 237 237 239 244 250 252 254 257 257 255 252 250 248 246 242 241 243 245 246 248 252 250
262 260 254 248 245 245 246 246 246 244 244 245 245 243 242 241 241 238 236 237 239 242 242 239 237 235 234 231 224 225 228 228 229 227 222 219 218 219 221 222 225 226 225 224 223 226 229 229 228 226 227 230 229 232 238 240 240 242 242 239 234 233 234 234 235 235 236 238 241 245 249 252 252 252 252 251 248 246 247 248 248 245 243 244 245 249 253 245
259 257 253 249 246 246 247 246 245 243 241 243 245 243 240 237 236 235 235 236 235 236 237 236 234 230 231 232 226 223 224 223 226 226 221 220 219 216 213 215 220 221 220 221 223 226 230 232 231 228 229 235 232 231 234 234 234 236 239 240 237 235 237 237 238 239 240 242 245 248 251 252 253 252 251 249 245 244 246 250 254 252 246 243 243 248 250 243
258 254 250 248 247 249 249 247 246 244 241 242 244 243 239 235 234 233 235 235 233 231 231 230 231 230 230 232 229 223 219 218 224 225 221 221 221 218 214 212 217 218 216 219 221 225 228 230 233 231 231 236 236 234 234 233 232 230 229 233 234 235 238 240 241 244 247 248 248 248 248 249 251 252 250 247 245 245 245 247 251 252 248 244 242 245 248 247
257 254 250 247 247 249 250 248 246 244 242 242 242 241 238 234 232 233 235 236 233 230 227 226 229 230 230 232 230 225 218 214 219 219 218 222 222 220 216 212 215 216 216 218 219 222 224 223 227 230 228 230 231 231 234 233 230 227 225 228 230 231 234 238 241 244 246 248 248 248 247 246 248 250 250 247 245 243 242 243 245 246 246 244 242 245 248 249
257 254 251 246 244 246 247 246 245 244 244 244 243 240 237 231 229 230 233 236 235 231 226 223 227 229 230 232 231 228 223 218 220 221 220 223 223 221 217 213 215 216 216 219 220 222 223 218 217 224 225 223 223 224 227 226 223 224 226 227 228 229 232 237 241 244 245 245 248 252 253 249 248 250 250 249 246 242 240 241 243 243 243 244 246 249 253 255
259 254 250 245 242 242 243 243 243 244 244 244 242 239 235 229 225 226 230 233 234 232 226 222 226 230 231 232 232 232 229 223 223 225 225 225 223 221 220 217 216 217 216 219 221 223 225 219 214 218 222 220 220 221 223 223 222 224 225 227 229 229 232 237 241 247 250 251 252 255 254 250 249 250 250 250 249 245 241 240 242 244 246 249 254 257 257 260
259 255 251 245 241 239 239 240 240 240 240 240 240 237 234 230 224 221 226 230 231 229 225 222 224 230 233 234 235 234 233 229 225 226 228 228 224 222 222 221 220 221 220 221 223 224 224 221 214 214 218 218 219 222 224 225 228 227 226 229 232 233 234 238 242 247 251 254 255 256 254 253 255 255 253 252 252 252 250 248 248 250 252 254 259 260 260 264
256 254 250 247 242 238 237 237 236 236 235 234 235 235 234 231 225 220 222 226 227 225 224 222 222 227 232 235 236 236 237 235 229 229 232 233 229 224 222 221 222 225 226 225 227 227 225 221 214 213 217 218 218 221 223 224 226 227 228 231 235 238 241 245 247 248 247 249 252 255 255 257 259 261 259 254 251 252 254 255 255 256 258 260 265 270 271 271
257 250 247 248 245 238 236 236 234 234 234 234 234 235 234 231 225 219 219 223 223 221 222 223 222 224 228 232 234 235 239 240 235 234 235 236 233 227 223 221 221 225 230 230 230 231 229 225 218 213 215 219 220 221 222 223 223 224 227 230 233 238 245 250 251 250 247 247 250 254 256 257 258 259 257 249 246 250 253 255 257 257 259 264 270 275 273 268
262 246 238 243 248 243 238 236 235 234 235 235 235 234 235 233 226 219 219 223 223 220 221 224 224 225 228 231 233 234 238 242 242 241 240 236 234 230 227 225 224 224 229 231 230 229 229 229 227 219 216 220 224 225 226 227 226 224 224 228 233 238 245 250 250 250 249 250 253 254 256 258 258 257 252 248 250 254 255 257 260 261 263 266 269 269 266 262
271 245 225 224 241 245 238 234 234 234 234 235 236 236 236 233 225 219 219 222 223 221 221 223 224 226 229 231 233 234 237 240 243 246 246 241 238 236 232 230 229 229 231 233 232 229 227 229 230 227 221 221 225 229 232 234 233 227 223 224 230 238 246 250 250 249 248 249 252 254 255 257 258 257 255 255 258 261 261 262 263 264 265 267 268 268 265 261
277 245 221 211 218 229 232 230 229 231 232 233 235 235 230 226 224 222 221 222 224 224 223 223 224 226 229 231 233 235 237 240 242 244 247 246 244 243 240 237 234 234 237 238 236 233 230 230 233 232 227 223 224 228 233 237 237 231 225 225 231 239 247 250 249 249 250 252 255 256 256 256 256 257 259 261 263 265 265 262 261 262 264 267 269 269 267 264
278 241 222 210 209 216 224 226 222 222 226 227 229 229 226 226 228 227 225 224 225 226 225 225 225 226 229 232 234 234 236 240 242 244 246 248 248 248 247 245 243 242 244 244 242 239 235 235 236 235 230 225 224 226 229 233 235 231 230 233 237 240 244 246 248 251 254 258 260 260 259 258 257 259 260 262 263 263 263 261 259 260 262 263 265 266 266 266
285 238 222 213 211 212 216 221 223 227 230 229 229 229 230 232 232 230 228 227 227 228 228 228 228 228 230 233 235 235 236 238 243 246 248 249 250 250 252 253 254 255 254 251 250 249 247 244 243 240 235 231 230 230 230 232 233 232 232 235 237 239 241 243 247 251 255 258 259 260 260 260 260 260 261 261 262 262 263 263 263 264 264 264 265 265 266 267
309 243 223 216 214 213 213 216 218 227 238 239 237 235 235 235 233 230 230 229 227 229 230 230 231 231 231 233 235 236 237 238 240 245 249 251 251 251 253 255 258 261 262 258 255 254 254 252 251 248 244 241 239 237 237 238 238 238 236 235 235 237 240 243 247 252 255 256 257 257 258 259 260 261 261 262 263 264 266 268 269 269 269 269 268 267 267 268
339 265 227 219 216 215 217 218 217 219 233 242 240 237 236 235 234 232 232 231 229 230 231 231 232 233 233 234 236 237 239 240 240 241 244 247 248 251 252 255 258 261 262 261 258 255 252 248 247 248 250 251 249 248 248 249 251 252 250 246 243 242 243 245 249 252 253 253 254 254 255 257 259 261 262 263 264 266 267 269 270 271 271 271 271 271 270 269
351 316 240 222 217 215 217 222 225 225 230 237 241 241 237 234 233 232 233 233 233 233 233 234 234 235 235 236 237 237 238 240 241 241 241 242 245 249 252 255 257 258 258 258 256 253 250 247 246 247 249 252 253 254 256 257 258 258 258 257 256 253 250 250 251 251 250 249 250 250 252 254 256 259 261 263 265 266 267 268 268 269 270 271 272 272 272 272
Height
5747 5747 5747 5748 5748 5748 5749 5749 5750 5750 5751 5751 5752 5753 5753 5754 5755 5755 5756 5757 5757 5758 5758 5759 5759 5760 5760 5761 5761 5762 5762 5763 5763 5764 5764 5765 5766 5767 5768 5769 5769 5770 5771 5771 5771 5772 5773 5774 5775 5776 5777 5778 5779 5780 5780 5781 5782 5784 5785 5786 5786 5787 5787 5788 5789 5789 5788 5788 5789 5790 5790 5790 5790 5791 5793 5794 5795 5796 5797 5797 5797 5798 5799 5799 5800 5800 5800 5800
5745 5745 5745 5746 5746 5746 5747 5747 5748 5748 5749 5749 5750 5750 5751 5752 5752 5753 5754 5754 5755 5756 5756 5757 5757 5757 5758 5758 5759 5759 5760 5760 5761 5761 5762 5763 5764 5764 5765 5766 5767 5767 5768 5768 5769 5770 5770 5771 5773 5774 5775 5776 5777 5778 5779 5779 5781 5782 5783 5784 5785 5785 5785 5786 5787 5787 5786 5786 5787 5788 5788 5788 5787 5788 5791 5793 5793 5794 5795 5795 5795 5796 5796 5797 5797 5798 5797 5797
5742 5743 5743 5743 5744 5744 5744 5745 5745 5746 5746 5747 5748 5748 5749 5749 5750 5751 5751 5752 5753 5753 5754 5754 5755 5755 5755 5756 5756 5757 5757 5758 5758 5759 5759 5760 5761 5762 5762 5763 5764 5764 5765 5766 5767 5767 5768 5769 5771 5772 5773 5774 5775 5776 5777 5777 5779 5779 5781 5783 5783 5782 5782 5783 5784 5784 5784 5783 5784 5785 5786 5786 5785 5787 5791 5792 5792 5793 5793 5793 5793 5794 5794 5795 5795 5795 5795 5795
5740 5740 5741 5741 5741 5742 5742 5743 5743 5744 5744 5745 5745 5746 5746 5747 5748 5748 5749 5750 5750 5751 5752 5752 5752 5752 5753 5753 5754 5754 5754 5755 5755 5756 5757 5757 5758 5759 5759 5760 5761 5762 5763 5763 5764 5765 5766 5767 5768 5769 5771 5772 5772 5773 5775 5775 5776 5777 5779 5780 5780 5779 5780 5781 5782 5782 5781 5781 5782 5783 5785 5786 5787 5787 5789 5791 5791 5791 5791 5791 5792 5792 5793 5793 5793 5793 5793 5793
5737 5738 5738 5738 5739 5739 5740 5740 5741 5741 5742 5742 5743 5743 5744 5745 5745 5746 5747 5747 5748 5749 5749 5749 5750 5750 5750 5751 5751 5751 5752 5752 5753 5753 5754 5754 5755 5756 5756 5757 5758 5759 5760 5761 5762 5762 5764 5765 5766 5767 5769 5769 5770 5771 5772 5773 5773 5774 5776 5777 5777 5778 5779 5779 5780 5780 5780 5780 5780 5781 5783 5786 5787 5787 5788 5790 5790 5790 5790 5790 5790 5790 5790 5791 5791 5791 5791 5790
5734 5735 5735 5736 5736 5737 5737 5738 5738 5739 5739 5740 5740 5741 5741 5742 5743 5744 5744 5745 5746 5746 5747 5747 5747 5748 5748 5749 5749 5749 5749 5749 5750 5750 5751 5751 5752 5753 5753 5754 5755 5756 5757 5758 5759 5760 5761 5763 5764 5765 5766 5767 5768 5769 5770 5769 5770 5771 5774 5775 5775 5776 5777 5777 5778 5778 5778 5778 5778 5779 5782 5783 5785 5785 5786 5787 5787 5788 5788 5788 5788 5788 5789 5789 5789 5789 5788 5788
5731 5732 5733 5733 5733 5734 5734 5735 5735 5736 5736 5737 5737 5738 5739 5739 5740 5741 5742 5742 5743 5744 5744 5745 5745 5745 5746 5746 5747 5747 5746 5746 5747 5748 5748 5749 5749 5750 5750 5751 5752 5753 5754 5755 5756 5757 5759 5760 5762 5763 5764 5764 5765 5766 5766 5766 5767 5769 5772 5773 5773 5774 5775 5775 5775 5775 5776 5776 5777 5778 5780 5781 5783 5784 5784 5784 5784 5785 5786 5786 5786 5787 5787 5787 5787 5787 5787 5786
5729 5729 5730 5730 5731 5731 5732 5732 5733 5733 5734 5734 5735 5735 5736 5737 5737 5738 5739 5740 5741 5741 5742 5742 5743 5743 5744 5744 5744 5744 5744 5744 5744 5745 5745 5746 5746 5747 5747 5748 5749 5750 5751 5752 5753 5755 5756 5758 5759 5760 5760 5761 5761 5762 5762 5763 5765 5767 5769 5770 5770 5771 5772 5772 5772 5773 5774 5775 5775 5776 5778 5779 5780 5781 5782 5783 5783 5783 5784 5784 5785 5785 5785 5785 5785 5785 5785 5785
5726 5726 5727 5727 5728 5729 5729 5730 5730 5731 5731 5732 5732 5733 5733 5734 5735 5735 5736 5737 5738 5739 5739 5740 5740 5741 5741 5742 5742 5741 5741 5741 5742 5742 5743 5743 5743 5744 5744 5745 5746 5747 5748 5749 5751 5752 5753 5754 5755 5756 5757 5757 5759 5760 5760 5762 5764 5766 5767 5767 5768 5770 5771 5771 5771 5771 5772 5773 5773 5774 5776 5777 5778 5778 5779 5780 5781 5781 5782 5783 5783 5783 5783 5783 5784 5783 5783 5783
5723 5723 5724 5725 5725 5726 5726 5727 5727 5728 5728 5729 5729 5730 5731 5731 5732 5733 5734 5734 5735 5736 5737 5737 5738 5738 5739 5739 5739 5739 5739 5739 5739 5740 5740 5740 5741 5741 5742 5742 5743 5744 5745 5747 5748 5749 5750 5751 5752 5753 5754 5756 5757 5758 5759 5760 5762 5764 5764 5765 5767 5768 5769 5769 5770 5770 5770 5771 5772 5773 5774 5775 5775 5776 5776 5777 5778 5779 5780 5780 5780 5781 5781 5782 5782 5782 5782 5782
5720 5721 5721 5722 5723 5723 5724 5724 5725 5725 5726 5726 5727 5727 5728 5729 5729 5730 5731 5732 5733 5733 5734 5735 5735 5736 5736 5737 5737 5737 5736 5737 5737 5737 5737 5738 5738 5739 5739 5740 5741 5742 5743 5744 5745 5746 5747 5748 5750 5751 5752 5754 5755 5756 5757 5759 5760 5762 5763 5764 5765 5766 5767 5768 5769 5768 5768 5769 5770 5771 5772 5773 5774 5774 5774 5774 5775 5778 5778 5778 5779 5780 5780 5780 5780 5780 5780 5781
5717 5718 5719 5719 5720 5721 5721 5722 5722 5723 5723 5724 5724 5725 5726 5726 5727 5728 5729 5730 5730 5731 5732 5732 5733 5734 5734 5734 5734 5734 5734 5735 5735 5735 5735 5735 5736 5736 5737 5738 5739 5739 5740 5741 5742 5744 5745 5747 5748 5749 5750 5752 5753 5754 5755 5757 5758 5759 5760 5762 5763 5764 5766 5767 5767 5766 5766 5767 5768 5769 5770 5772 5772 5771 5771 5770 5772 5776 5776 5776 5778 5779 5779 5778 5778 5778 5779 5779
5715 5715 5716 5717 5717 5718 5719 5719 5720 5720 5721 5721 5722 5723 5723 5724 5725 5725 5726 5727 5728 5729 5729 5730 5731 5731 5731 5732 5733 5732 5732 5733 5734 5733 5734 5734 5734 5734 5735 5736 5736 5737 5738 5739 5740 5742 5743 5744 5746 5747 5749 5750 5751 5752 5753 5754 5756 5756 5758 5760 5761 5763 5764 5764 5764 5764 5764 5764 5765 5766 5768 5771 5770 5768 5767 5767 5770 5773 5773 5774 5776 5777 5777 5776 5776 5777 5777 5778
5712 5713 5713 5714 5715 5715 5716 5717 5717 5718 5718 5719 5720 5720 5721 5722 5722 5723 5724 5725 5726 5727 5727 5728 5728 5729 5729 5730 5731 5730 5730 5731 5732 5732 5732 5732 5732 5733 5733 5734 5734 5735 5736 5737 5738 5739 5740 5742 5743 5745 5746 5748 5748 5749 5750 5752 5753 5754 5755 5757 5758 5759 5760 5760 5760 5761 5762 5762 5763 5763 5765 5769 5767 5765 5765 5766 5769 5771 5771 5773 5774 5774 5774 5774 5775 5775 5776 5776
5710 5710 5711 5711 5712 5713 5713 5714 5715 5715 5716 5717 5717 5718 5719 5719 5720 5721 5722 5722 5723 5724 5725 5726 5726 5726 5727 5728 5729 5729 5728 5729 5730 5730 5730 5730 5731 5731 5731 5732 5733 5733 5734 5735 5735 5736 5738 5740 5741 5742 5743 5744 5745 5746 5747 5749 5750 5751 5752 5753 5754 5755 5756 5756 5757 5759 5759 5759 5760 5760 5763 5766 5765 5763 5763 5765 5768 5769 5769 5770 5772 5772 5772 5772 5773 5774 5774 5774
5708 5708 5709 5709 5710 5710 5711 5712 5712 5713 5713 5714 5715 5715 5716 5717 5718 5718 5719 5720 5721 5722 5723 5723 5724 5724 5725 5726 5727 5727 5727 5727 5728 5729 5729 5729 5729 5729 5730 5730 5731 5732 5732 5733 5734 5735 5736 5737 5738 5740 5740 5741 5742 5743 5744 5746 5747 5748 5749 5750 5751 5752 5752 5753 5754 5755 5755 5755 5757 5758 5760 5762 5762 5761 5762 5763 5766 5767 5767 5769 5770 5770 5770 5771 5771 5772 5772 5773
5706 5706 5706 5707 5707 5708 5708 5709 5709 5710 5711 5712 5712 5713 5714 5714 5715 5716 5717 5718 5719 5720 5721 5721 5722 5722 5723 5724 5725 5725 5725 5725 5726 5727 5727 5728 5728 5728 5728 5729 5729 5730 5731 5732 5732 5733 5734 5735 5736 5737 5738 5739 5740 5741 5742 5743 5744 5745 5746 5747 5749 5749 5750 5750 5751 5751 5752 5753 5755 5756 5757 5759 5759 5759 5760 5762 5764 5765 5766 5767 5767 5768 5768 5769 5769 5770 5770 5771
5704 5704 5704 5705 5705 5705 5706 5706 5707 5708 5708 5709 5710 5710 5711 5712 5713 5714 5714 5715 5716 5717 5718 5719 5720 5721 5721 5722 5723 5723 5724 5724 5724 5725 5725 5726 5726 5726 5727 5727 5728 5729 5729 5730 5731 5731 5732 5733 5734 5735 5736 5738 5738 5739 5740 5741 5742 5742 5744 5746 5746 5747 5747 5748 5749 5749 5751 5752 5753 5754 5755 5757 5757 5758 5759 5760 5762 5763 5763 5764 5765 5765 5766 5767 5768 5768 5769 5769
5702 5702 5702 5703 5703 5703 5703 5704 5705 5705 5706 5707 5707 5708 5709 5710 5710 5711 5712 5713 5714 5715 5716 5717 5718 5719 5720 5721 5721 5722 5722 5722 5723 5723 5724 5724 5725 5725 5725 5726 5726 5727 5728 5728 5729 5730 5731 5732 5733 5734 5735 5736 5737 5737 5738 5738 5739 5740 5742 5743 5744 5745 5746 5747 5748 5748 5749 5751 5752 5753 5754 5755 5756 5757 5757 5758 5760 5760 5761 5762 5763 5763 5765 5766 5766 5767 5767 5768
5701 5701 5701 5701 5701 5701 5701 5702 5702 5703 5704 5704 5705 5705 5706 5707 5708 5709 5710 5711 5712 5713 5714 5715 5715 5716 5717 5719 5719 5720 5720 5721 5721 5721 5722 5722 5723 5724 5724 5725 5725 5726 5726 5727 5728 5729 5729 5730 5731 5732 5732 5733 5734 5734 5734 5735 5737 5739 5740 5741 5742 5743 5744 5746 5747 5746 5747 5749 5750 5751 5752 5753 5755 5756 5756 5757 5758 5759 5760 5760 5761 5762 5763 5764 5765 5765 5766 5766
5699 5699 5699 5699 5699 5699 5699 5700 5700 5701 5701 5702 5702 5703 5704 5705 5706 5707 5708 5709 5710 5711 5712 5713 5713 5714 5715 5717 5717 5718 5718 5719 5720 5720 5720 5721 5721 5722 5722 5723 5723 5724 5725 5725 5726 5727 5728 5729 5729 5730 5730 5731 5732 5732 5732 5734 5736 5737 5739 5740 5740 5741 5742 5744 5745 5745 5746 5748 5748 5749 5750 5751 5753 5754 5754 5755 5757 5758 5758 5759 5759 5760 5762 5762 5763 5763 5764 5765
5697 5697 5697 5697 5697 5697 5697 5697 5698 5699 5699 5700 5700 5701 5702 5702 5703 5704 5705 5706 5707 5709 5710 5711 5711 5712 5713 5714 5715 5716 5716 5716 5717 5718 5719 5719 5719 5720 5721 5721 5721 5722 5723 5724 5725 5725 5726 5726 5727 5728 5729 5729 5730 5730 5731 5733 5735 5736 5737 5738 5738 5739 5741 5742 5744 5744 5745 5746 5747 5748 5748 5748 5750 5751 5752 5753 5755 5756 5757 5757 5758 5759 5760 5761 5761 5762 5763 5763
5695 5695 5695 5695 5695 5694 5695 5695 5696 5696 5697 5697 5698 5699 5699 5699 5700 5701 5702 5703 5704 5706 5707 5708 5708 5709 5711 5712 5713 5714 5714 5714 5715 5716 5717 5717 5718 5719 5719 5719 5720 5721 5722 5722 5723 5723 5723 5724 5725 5726 5727 5728 5728 5729 5730 5732 5733 5735 5736 5736 5736 5737 5739 5740 5742 5743 5743 5744 5745 5746 5746 5746 5747 5748 5750 5751 5753 5754 5755 5756 5756 5757 5758 5759 5759 5760 5761 5762
5693 5693 5693 5693 5693 5692 5692 5693 5694 5694 5694 5695 5696 5696 5696 5697 5698 5698 5699 5700 5701 5703 5705 5705 5706 5707 5708 5709 5711 5711 5712 5712 5713 5714 5714 5715 5716 5717 5717 5717 5718 5720 5720 5720 5721 5721 5721 5722 5723 5724 5725 5726 5727 5727 5729 5730 5732 5733 5734 5735 5735 5736 5737 5738 5739 5740 5741 5742 5744 5744 5745 5745 5745 5746 5747 5748 5750 5752 5753 5754 5755 5756 5757 5757 5758 5759 5759 5760
5691 5691 5691 5691 5690 5690 5690 5690 5691 5692 5692 5693 5694 5693 5693 5694 5695 5696 5697 5698 5699 5700 5702 5702 5703 5703 5704 5706 5708 5709 5710 5710 5711 5711 5712 5713 5714 5715 5715 5715 5717 5718 5718 5718 5719 5719 5720 5720 5722 5723 5723 5724 5725 5726 5727 5728 5730 5732 5734 5734 5734 5734 5735 5736 5737 5738 5740 5741 5742 5743 5744 5744 5744 5745 5745 5746 5747 5750 5751 5752 5754 5755 5755 5756 5756 5757 5758 5758
5687 5688 5688 5688 5688 5688 5688 5688 5689 5689 5690 5691 5691 5690 5690 5691 5693 5694 5694 5696 5696 5697 5699 5699 5700 5700 5701 5704 5706 5706 5707 5708 5708 5709 5710 5711 5711 5712 5712 5714 5715 5715 5715 5716 5716 5717 5718 5719 5720 5721 5722 5722 5723 5724 5725 5726 5728 5731 5732 5733 5732 5733 5734 5734 5735 5737 5738 5739 5740 5741 5742 5743 5744 5744 5744 5745 5746 5748 5749 5751 5752 5753 5754 5754 5755 5756 5756 5757
5684 5684 5685 5685 5685 5685 5686 5686 5686 5687 5688 5688 5688 5687 5687 5688 5690 5691 5691 5693 5694 5694 5696 5697 5697 5698 5699 5701 5702 5704 5705 5705 5705 5707 5708 5708 5709 5710 5711 5712 5713 5713 5713 5713 5714 5715 5716 5717 5718 5719 5720 5721 5721 5722 5723 5724 5726 5728 5730 5730 5730 5731 5732 5733 5733 5735 5736 5737 5739 5740 5741 5742 5743 5743 5743 5744 5745 5746 5747 5749 5750 5751 5752 5753 5754 5754 5755 5755
5681 5681 5682 5682 5682 5682 5683 5683 5684 5685 5685 5685 5685 5685 5685 5686 5687 5688 5689 5690 5691 5692 5693 5694 5695 5696 5696 5697 5700 5701 5702 5702 5703 5704 5705 5705 5706 5707 5709 5710 5710 5710 5710 5712 5713 5714 5714 5715 5716 5717 5718 5719 5720 5721 5721 5722 5724 5726 5727 5728 5728 5728 5730 5731 5732 5733 5734 5735 5737 5738 5739 5740 5742 5742 5742 5743 5744 5745 5746 5747 5748 5749 5751 5751 5752 5752 5753 5753
5677 5678 5678 5679 5679 5679 5680 5681 5681 5682 5682 5682 5683 5683 5683 5684 5684 5685 5686 5688 5689 5689 5690 5691 5691 5692 5692 5694 5697 5698 5699 5699 5700 5701 5701 5702 5703 5705 5706 5707 5707 5706 5707 5710 5711 5712 5712 5713 5714 5715 5716 5717 5718 5719 5719 5721 5723 5723 5724 5725 5725 5726 5728 5729 5730 5731 5732 5733 5735 5736 5737 5739 5740 5742 5742 5742 5742 5743 5744 5745 5746 5748 5749 5749 5750 5750 5751 5752
5674 5675 5675 5676 5676 5676 5677 5677 5677 5678 5679 5679 5680 5680 5681 5681 5682 5682 5684 5686 5686 5686 5687 5688 5688 5689 5690 5692 5694 5695 5695 5696 5697 5698 5699 5700 5701 5702 5702 5703 5703 5703 5704 5707 5709 5710 5710 5711 5711 5713 5715 5716 5716 5717 5717 5719 5720 5720 5721 5722 5723 5724 5725 5727 5728 5729 5729 5731 5732 5733 5734 5736 5738 5740 5741 5741 5740 5741 5741 5742 5744 5746 5747 5747 5748 5749 5749 5750
5670 5672 5673 5673 5673 5673 5674 5673 5674 5675 5676 5676 5676 5677 5678 5678 5678 5680 5682 5683 5684 5684 5684 5685 5685 5686 5688 5689 5690 5691 5692 5693 5694 5695 5696 5697 5698 5699 5700 5700 5701 5701 5702 5704 5707 5708 5708 5709 5709 5711 5713 5713 5714 5714 5715 5716 5717 5718 5719 5720 5722 5722 5723 5725 5725 5726 5727 5728 5729 5730 5731 5733 5734 5737 5739 5739 5739 5739 5739 5740 5741 5743 5744 5745 5746 5747 5747 5748
5666 5668 5669 5669 5670 5670 5670 5669 5671 5672 5672 5672 5673 5674 5674 5675 5675 5678 5680 5680 5680 5681 5681 5681 5682 5684 5685 5686 5687 5688 5689 5690 5691 5693 5694 5694 5695 5697 5698 5698 5699 5700 5700 5702 5705 5705 5706 5707 5707 5709 5710 5711 5711 5712 5712 5713 5714 5716 5717 5718 5720 5721 5721 5722 5723 5723 5724 5725 5726 5728 5728 5730 5731 5732 5735 5737 5737 5737 5738 5738 5739 5741 5742 5743 5744 5744 5745 5745
5662 5664 5665 5666 5666 5667 5665 5665 5667 5668 5668 5669 5670 5671 5671 5671 5673 5676 5677 5677 5677 5678 5678 5678 5679 5680 5682 5683 5684 5685 5685 5686 5688 5690 5691 5692 5693 5695 5696 5696 5697 5697 5698 5700 5702 5703 5703 5704 5705 5706 5707 5708 5709 5710 5711 5712 5712 5714 5715 5716 5718 5718 5719 5720 5721 5721 5722 5723 5724 5725 5726 5727 5727 5728 5731 5733 5733 5734 5735 5736 5737 5738 5739 5740 5741 5741 5742 5743
5658 5659 5661 5662 5662 5662 5660 5661 5664 5665 5664 5665 5666 5667 5667 5668 5672 5674 5674 5674 5674 5674 5674 5675 5676 5677 5679 5680 5681 5682 5682 5683 5684 5687 5688 5689 5691 5692 5693 5694 5694 5695 5696 5697 5699 5700 5701 5702 5703 5704 5705 5706 5707 5709 5710 5710 5710 5711 5712 5713 5715 5716 5717 5718 5719 5719 5720 5721 5722 5722 5723 5723 5724 5725 5727 5729 5730 5731 5732 5733 5734 5735 5736 5737 5738 5738 5739 5739
5653 5655 5657 5657 5657 5656 5655 5656 5660 5661 5661 5661 5662 5662 5664 5667 5670 5671 5671 5670 5670 5670 5671 5673 5674 5675 5676 5677 5678 5678 5679 5680 5681 5683 5685 5686 5688 5689 5691 5692 5692 5693 5694 5695 5697 5698 5699 5700 5701 5702 5703 5704 5706 5707 5707 5708 5709 5709 5710 5711 5712 5714 5715 5716 5717 5717 5717 5718 5719 5719 5719 5719 5721 5722 5723 5725 5726 5727 5728 5729 5731 5732 5733 5734 5735 5736 5735 5735
5649 5651 5652 5652 5652 5650 5650 5652 5656 5657 5658 5657 5657 5659 5662 5665 5667 5667 5667 5667 5667 5667 5668 5670 5671 5672 5673 5674 5675 5675 5676 5678 5679 5679 5681 5683 5685 5686 5688 5689 5689 5690 5691 5693 5694 5695 5697 5698 5699 5700 5701 5702 5703 5704 5704 5705 5706 5707 5707 5708 5710 5711 5712 5713 5714 5714 5715 5716 5717 5717 5717 5716 5718 5719 5720 5722 5724 5724 5725 5726 5727 5729 5730 5731 5733 5733 5732 5732
5644 5646 5647 5647 5646 5645 5646 5649 5651 5653 5654 5653 5653 5656 5660 5662 5663 5663 5663 5663 5664 5664 5665 5667 5668 5669 5670 5671 5671 5672 5674 5675 5675 5676 5677 5678 5681 5682 5684 5685 5686 5687 5689 5690 5691 5693 5694 5696 5697 5698 5699 5700 5701 5702 5702 5702 5703 5704 5705 5706 5707 5708 5708 5710 5711 5711 5712 5714 5714 5715 5714 5713 5714 5716 5717 5720 5721 5722 5723 5724 5724 5725 5727 5728 5729 5730 5730 5730
5640 5640 5641 5642 5642 5641 5643 5645 5646 5648 5649 5648 5649 5653 5656 5658 5660 5660 5659 5660 5661 5661 5662 5663 5664 5665 5666 5668 5668 5668 5671 5672 5672 5674 5674 5675 5677 5679 5681 5682 5683 5684 5686 5687 5688 5690 5692 5694 5694 5695 5697 5697 5698 5699 5699 5700 5701 5702 5703 5703 5704 5705 5706 5707 5708 5709 5710 5711 5712 5712 5711 5711 5711 5713 5715 5717 5718 5720 5721 5721 5722 5722 5724 5724 5725 5726 5726 5726
5634 5634 5636 5638 5638 5638 5639 5641 5641 5642 5643 5644 5646 5650 5652 5655 5656 5656 5655 5656 5657 5658 5659 5660 5661 5662 5663 5664 5665 5666 5668 5669 5670 5671 5672 5672 5673 5676 5678 5680 5680 5681 5683 5684 5685 5686 5689 5691 5692 5693 5694 5695 5696 5697 5697 5698 5699 5700 5700 5700 5701 5703 5703 5704 5705 5706 5708 5709 5709 5709 5709 5709 5709 5711 5712 5714 5716 5717 5718 5719 5719 5720 5721 5721 5722 5723 5723 5722
5629 5629 5631 5633 5634 5634 5635 5636 5636 5637 5638 5640 5643 5646 5648 5650 5651 5651 5651 5652 5653 5654 5656 5657 5658 5658 5660 5661 5662 5664 5666 5667 5667 5669 5670 5670 5672 5674 5676 5677 5678 5679 5680 5681 5682 5683 5686 5689 5690 5691 5692 5693 5693 5694 5695 5695 5696 5697 5698 5698 5699 5700 5701 5702 5703 5704 5705 5706 5707 5707 5708 5708 5709 5710 5711 5711 5713 5715 5716 5717 5717 5718 5718 5719 5719 5719 5720 5720
5624 5625 5627 5628 5628 5629 5630 5631 5631 5633 5635 5637 5639 5641 5642 5644 5646 5646 5646 5647 5649 5651 5652 5653 5654 5655 5657 5657 5659 5660 5662 5664 5665 5666 5667 5668 5670 5672 5673 5674 5675 5676 5677 5679 5679 5681 5683 5685 5688 5689 5689 5690 5691 5691 5692 5693 5694 5695 5696 5696 5697 5697 5698 5699 5700 5701 5702 5703 5704 5705 5706 5707 5708 5709 5709 5710 5711 5712 5713 5714 5715 5715 5716 5716 5717 5717 5717 5718
5618 5620 5623 5623 5623 5625 5626 5626 5628 5629 5631 5633 5634 5636 5637 5638 5641 5642 5642 5642 5645 5647 5648 5650 5650 5652 5653 5654 5656 5657 5658 5660 5662 5662 5664 5666 5668 5669 5670 5671 5673 5674 5675 5676 5676 5678 5680 5682 5685 5686 5686 5687 5688 5689 5689 5691 5692 5693 5693 5694 5694 5695 5696 5697 5698 5699 5700 5701 5702 5703 5704 5705 5706 5707 5708 5709 5709 5710 5711 5712 5712 5713 5713 5714 5715 5715 5715 5716
5613 5615 5618 5618 5619 5620 5621 5621 5623 5625 5626 5628 5629 5630 5632 5634 5636 5638 5638 5638 5641 5643 5644 5646 5647 5648 5650 5651 5653 5654 5654 5656 5658 5660 5661 5663 5664 5666 5667 5669 5671 5672 5673 5673 5674 5675 5677 5679 5682 5683 5683 5684 5685 5686 5686 5687 5689 5689 5690 5692 5692 5693 5694 5695 5696 5697 5697 5698 5699 5700 5701 5703 5704 5705 5706 5707 5708 5708 5709 5709 5710 5711 5711 5711 5712 5712 5713 5713
5608 5610 5613 5614 5614 5615 5616 5617 5619 5621 5622 5623 5625 5626 5628 5630 5632 5634 5634 5635 5637 5640 5640 5642 5644 5645 5646 5647 5649 5651 5651 5652 5655 5657 5658 5660 5661 5662 5662 5665 5668 5669 5670 5671 5672 5673 5674 5676 5678 5680 5680 5680 5681 5682 5683 5684 5685 5686 5687 5689 5690 5691 5692 5692 5693 5694 5695 5695 5696 5697 5699 5701 5702 5702 5703 5704 5705 5706 5707 5707 5708 5709 5709 5709 5710 5711 5711 5711
5603 5605 5609 5611 5610 5610 5611 5613 5615 5617 5618 5619 5620 5622 5624 5626 5628 5629 5630 5631 5634 5636 5637 5638 5640 5641 5642 5644 5646 5648 5649 5650 5652 5653 5655 5657 5658 5658 5659 5661 5664 5665 5666 5667 5668 5670 5671 5672 5673 5676 5677 5677 5677 5679 5680 5681 5681 5682 5684 5686 5687 5688 5689 5690 5691 5692 5692 5693 5694 5695 5696 5698 5699 5700 5700 5701 5702 5703 5704 5705 5706 5706 5707 5707 5708 5709 5709 5709
5599 5600 5605 5608 5607 5605 5606 5608 5611 5613 5614 5615 5616 5618 5621 5622 5623 5624 5626 5628 5630 5632 5633 5635 5636 5637 5639 5641 5643 5645 5646 5647 5649 5650 5651 5654 5654 5655 5656 5658 5661 5662 5663 5664 5665 5666 5667 5668 5669 5672 5674 5674 5675 5676 5677 5678 5678 5679 5680 5682 5684 5685 5685 5687 5688 5689 5690 5691 5691 5692 5693 5695 5696 5697 5698 5698 5699 5700 5702 5703 5703 5703 5704 5704 5705 5706 5706 5706
5595 5596 5599 5602 5603 5603 5602 5604 5607 5608 5608 5610 5613 5615 5617 5619 5619 5621 5623 5625 5627 5629 5630 5632 5633 5634 5636 5638 5640 5642 5643 5644 5646 5647 5648 5650 5651 5652 5654 5656 5658 5658 5659 5661 5662 5663 5664 5665 5666 5667 5669 5670 5672 5673 5674 5675 5675 5675 5677 5678 5680 5681 5682 5683 5684 5685 5686 5687 5688 5689 5690 5692 5693 5694 5695 5695 5696 5697 5698 5699 5700 5700 5701 5702 5702 5703 5703 5703
5590 5591 5593 5595 5598 5599 5600 5602 5604 5604 5605 5607 5610 5612 5614 5616 5617 5619 5621 5623 5624 5626 5627 5629 5630 5632 5633 5635 5637 5639 5640 5641 5643 5644 5645 5647 5647 5648 5650 5653 5654 5655 5657 5658 5659 5660 5661 5661 5662 5663 5664 5666 5668 5669 5670 5670 5671 5671 5672 5674 5676 5677 5678 5679 5680 5681 5682 5683 5684 5684 5686 5688 5689 5690 5691 5691 5692 5693 5694 5695 5696 5696 5697 5698 5699 5699 5699 5699
5587 5586 5588 5591 5592 5594 5597 5599 5601 5601 5603 5605 5608 5609 5611 5613 5614 5616 5618 5620 5621 5623 5624 5626 5628 5629 5631 5632 5634 5636 5637 5639 5640 5640 5641 5643 5644 5645 5647 5649 5650 5652 5654 5656 5656 5657 5658 5658 5659 5660 5661 5662 5664 5665 5665 5666 5667 5667 5668 5670 5671 5673 5674 5675 5676 5677 5678 5679 5679 5680 5681 5682 5684 5685 5686 5686 5687 5688 5689 5690 5690 5691 5692 5693 5694 5694 5695 5694
5585 5584 5585 5587 5588 5591 5593 5596 5598 5599 5601 5603 5605 5606 5608 5610 5611 5613 5615 5616 5618 5620 5621 5623 5625 5627 5628 5630 5631 5633 5635 5636 5637 5637 5638 5640 5641 5642 5644 5645 5646 5648 5650 5652 5653 5654 5655 5656 5656 5658 5658 5659 5660 5661 5661 5662 5662 5663 5664 5666 5667 5669 5670 5671 5672 5673 5674 5675 5675 5676 5676 5677 5679 5680 5680 5681 5682 5683 5684 5684 5684 5685 5686 5687 5688 5688 5688 5689
5583 5583 5583 5584 5586 5588 5590 5592 5594 5597 5598 5600 5601 5603 5605 5606 5608 5610 5611 5613 5615 5616 5618 5620 5622 5624 5625 5627 5628 5630 5632 5633 5634 5635 5636 5636 5637 5638 5640 5642 5643 5644 5645 5647 5649 5650 5651 5652 5653 5654 5654 5655 5656 5657 5657 5657 5658 5659 5660 5662 5664 5665 5667 5668 5668 5669 5670 5670 5671 5671 5672 5672 5674 5674 5675 5676 5677 5678 5678 5678 5679 5679 5680 5680 5681 5681 5682 5682
5583 5582 5582 5583 5585 5587 5588 5590 5591 5593 5595 5597 5598 5599 5601 5603 5605 5607 5608 5610 5612 5613 5615 5617 5618 5620 5622 5623 5625 5627 5629 5630 5631 5632 5633 5633 5634 5635 5636 5638 5639 5640 5641 5643 5644 5646 5647 5648 5649 5650 5651 5651 5652 5653 5653 5653 5653 5654 5656 5658 5659 5661 5662 5663 5664 5664 5665 5665 5666 5667 5668 5668 5668 5669 5670 5670 5671 5672 5672 5673 5673 5674 5674 5674 5674 5674 5674 5675